Погода в Белоусовке

Казахстан     50˚07′54″N   82˚31′21″E
темп.,
°C
ветер,
м/с
пор.,
м/с
влажн.,
%
обл.,
%
осадки,
мм/ч
давл.,
гПа
погр.,
м
6 декабря, вс
вс600:00−17˚ю00700 0.0 104120
03:00−17˚в11730 0.0 104120
06:00−17˚всв11780 0.0 104320
09:00−17˚вюв11790 0.0 104320
12:00−13˚св00800 0.0 104322
15:00−14˚з007624 0.0 104320
18:00−16˚всв117247 0.0 104420
21:00−17˚вюв117020 0.0 104320
7 декабря, пн
пн700:00−17˚всв117527 0.0 104320
03:00−17˚в11792 0.0 104220
06:00−18˚в11781 0.0 104120
09:00−17˚всв117316 0.0 104020
12:00−13˚ю00758 0.0 103822
15:00−14˚св00690 0.0 103720
18:00−16˚ссв11667 0.0 103620
21:00−15˚ююв1166100 0.0 103720
8 декабря, вт
вт800:00−17˚всв116870 0.0 103720
03:00−17˚ююв11710 0.0 103720
06:00−18˚вюв11770 0.0 103620
09:00−17˚юв11750 0.0 103620
12:00−13˚ююв117535 0.0 103423
15:00−13˚ююв1273100 0.0 103321
18:00−13˚ююв2270100 0.0 103320
21:00−12˚ююв2379100 0.0 103334
9 декабря, ср
ср900:00−11˚ююв2384100 0.1 103374
03:00−11˚ююв2596100 1.2 1033172
06:00−10˚ююв2496100 2.9 1033168
09:00−10˚ююв2596100 1.4 1033200
12:00−9˚ююв3595100 2.4 1033340
15:00−8˚ю3696100 0.8 1033448
18:00−9˚ю3696100 1.8 1033278
21:00−9˚ююв3896100 0.8 1033331
10 декабря, чт
чт1000:00−10˚ююв4996100 1.6 1033399
03:00−10˚ююв4995100 0.7 1033374
06:00−10˚ююв3896100 1.6 1033370
09:00−11˚ююв3796100 0.8 1033282
12:00−9˚ю4794100 1.3 1033555
15:00−9˚ююз4795100 0.6 1033571
18:00−11˚ююз3796100 1.5 1034309
21:00−12˚ююз3796100 1.0 1035299